Change the Weather History Date:

Wednesday, January 1, 2014

  Actual Average Record
Temperature  
Mean Temperature -1 °F -  
Max Temperature 9 °F 25 °F 41 °F (1980)
Min Temperature -11 °F 9 °F -20 °F (1968)
Degree Days  
Heating Degree Days 66    
Moisture  
Dew Point -9 °F    
Average Humidity 58    
Maximum Humidity 76    
Minimum Humidity 46    
Precipitation  
Precipitation 0.00 in - - ()
Sea Level Pressure  
Sea Level Pressure 30.37 in    
Wind  
Wind Speed 4 mph (North)    
Max Wind Speed 10 mph    
Max Gust Speed -    
Visibility 10 miles    
Events      
Averages and records for this station are not official NWS values.
T = Trace of Precipitation, MM = Missing Value Source: NWS Daily Summary

Daily Weather History Graph

Daily Weather History Graph

Search for Another Location

Airport or City:

Trip Planner

Search our weather history database for the weather conditions in past years. The results will help you decide how hot, cold, wet, or windy it might be!

Date:

Astronomy

Jan. 01, 2014 Rise Set
Actual Time 7:32 AM CST 4:27 PM CST
Civil Twilight 6:58 AM CST 5:00 PM CST
Nautical Twilight 6:22 AM CST 5:37 PM CST
Astronomical Twilight 5:47 AM CST 6:12 PM CST
Moon 7:19 AM CST (1/1) 5:15 PM CST (1/1)
Length of Visible Light 10h 01m
Length of Day
8h 55m
New Moon, 0% of the Moon is Illuminated
Jan 1
New Moon
Jan 7
First Quarter
Jan 15
Full
Jan 23
Last Quarter
Jan 30
New

Hourly Weather History & Observations

Time (CST) Temp. Windchill Dew Point Humidity Pressure Visibility Wind Dir Wind Speed Gust Speed Precip Events Conditions
12:15 AM -11.4 °F -20.8 °F -18.4 °F 71% 30.37 in 10.0 mi NNW 3.5 mph - N/A   Clear
12:35 AM -10.8 °F - -16.6 °F 76% 30.36 in 10.0 mi Calm Calm - N/A   Clear
12:55 AM -9.8 °F -19.0 °F -16.1 °F 74% 30.36 in 10.0 mi North 3.5 mph - N/A   Clear
1:15 AM -11.2 °F - -17.3 °F 74% 30.35 in 10.0 mi Calm Calm - N/A   Clear
1:35 AM -11.2 °F - -17.5 °F 74% 30.35 in 10.0 mi Calm Calm - N/A   Clear
1:55 AM -9.9 °F -21.5 °F -15.9 °F 75% 30.35 in 10.0 mi North 4.6 mph - N/A   Clear
2:15 AM -6.9 °F -19.7 °F -14.8 °F 68% 30.35 in 10.0 mi North 5.8 mph - N/A   Clear
2:35 AM -6.0 °F -16.9 °F -14.4 °F 67% 30.35 in 10.0 mi North 4.6 mph - N/A   Mostly Cloudy
2:55 AM -5.1 °F -15.8 °F -14.3 °F 65% 30.36 in 10.0 mi North 4.6 mph - N/A   Mostly Cloudy
3:15 AM -4.4 °F -18.2 °F -14.1 °F 63% 30.37 in 10.0 mi North 6.9 mph - N/A   Overcast
3:35 AM -4.0 °F -14.6 °F -13.9 °F 63% 30.38 in 10.0 mi North 4.6 mph - N/A   Mostly Cloudy
3:55 AM -3.6 °F -14.1 °F -13.5 °F 63% 30.37 in 10.0 mi North 4.6 mph - N/A   Mostly Cloudy
4:15 AM -3.3 °F -13.7 °F -13.4 °F 62% 30.38 in 10.0 mi North 4.6 mph - N/A   Overcast
4:35 AM -3.1 °F -11.4 °F -13.2 °F 62% 30.38 in 10.0 mi NNE 3.5 mph - N/A   Overcast
4:55 AM -3.1 °F -15.2 °F -13.0 °F 63% 30.37 in 10.0 mi NNE 5.8 mph - N/A   Overcast
5:15 AM -2.6 °F -12.9 °F -12.5 °F 63% 30.36 in 10.0 mi North 4.6 mph - N/A   Overcast
5:35 AM -2.2 °F -10.4 °F -12.3 °F 62% 30.37 in 10.0 mi North 3.5 mph - N/A   Overcast
5:55 AM -2.2 °F -12.5 °F -12.1 °F 63% 30.37 in 10.0 mi North 4.6 mph - N/A   Overcast
6:15 AM -1.8 °F -12.0 °F -11.7 °F 63% 30.37 in 10.0 mi NNE 4.6 mph - N/A   Overcast
6:35 AM -1.5 °F -11.6 °F -11.2 °F 63% 30.38 in 10.0 mi North 4.6 mph - N/A   Overcast
6:55 AM -1.5 °F -11.6 °F -11.2 °F 63% 30.39 in 10.0 mi North 4.6 mph - N/A   Overcast
7:15 AM -1.3 °F -13.1 °F -10.7 °F 65% 30.40 in 10.0 mi North 5.8 mph - N/A   Overcast
7:35 AM -1.1 °F -9.1 °F -10.3 °F 65% 30.41 in 10.0 mi North 3.5 mph - N/A   Overcast
7:55 AM -0.6 °F -10.6 °F -9.9 °F 65% 30.41 in 10.0 mi North 4.6 mph - N/A   Overcast
8:15 AM -0.2 °F -10.1 °F -9.4 °F 65% 30.42 in 10.0 mi North 4.6 mph - N/A   Overcast
8:35 AM 0.5 °F -7.3 °F -9.0 °F 64% 30.42 in 10.0 mi North 3.5 mph - N/A   Overcast
8:55 AM 1.0 °F -10.3 °F -8.7 °F 64% 30.42 in 10.0 mi North 5.8 mph - N/A   Overcast
9:15 AM 1.4 °F -9.9 °F -8.5 °F 63% 30.42 in 10.0 mi North 5.8 mph - N/A   Overcast
9:35 AM 2.3 °F -10.2 °F -8.1 °F 62% 30.42 in 10.0 mi NNE 6.9 mph - N/A   Overcast
9:55 AM 3.0 °F -9.3 °F -8.3 °F 59% 30.42 in 10.0 mi NNE 6.9 mph - N/A   Overcast
10:15 AM 3.7 °F -9.6 °F -8.5 °F 57% 30.43 in 10.0 mi NNE 8.1 mph - N/A   Overcast
10:35 AM 4.6 °F -6.0 °F -8.1 °F 56% 30.42 in 10.0 mi North 5.8 mph - N/A   Overcast
10:55 AM 5.0 °F -5.6 °F -8.5 °F 54% 30.42 in 10.0 mi NE 5.8 mph - N/A   Overcast
11:15 AM 5.7 °F -6.1 °F -8.5 °F 52% 30.41 in 10.0 mi NNE 6.9 mph - N/A   Overcast
11:35 AM 6.4 °F -8.2 °F -8.0 °F 52% 30.40 in 10.0 mi North 10.4 mph - N/A   Overcast
11:55 AM 6.6 °F -7.1 °F -8.5 °F 50% 30.39 in 10.0 mi North 9.2 mph - N/A   Overcast
12:15 PM 7.2 °F -4.3 °F -8.3 °F 49% 30.38 in 10.0 mi North 6.9 mph - N/A   Overcast
12:35 PM 7.5 °F -6.9 °F -8.1 °F 49% 30.37 in 10.0 mi NNE 10.4 mph - N/A   Overcast
12:55 PM 7.9 °F -4.6 °F -8.3 °F 48% 30.37 in 10.0 mi NNE 8.1 mph - N/A   Mostly Cloudy
1:15 PM 8.2 °F -4.1 °F -8.1 °F 47% 30.36 in 10.0 mi North 8.1 mph - N/A   Mostly Cloudy
1:35 PM 8.4 °F -3.9 °F -7.8 °F 48% 30.36 in 10.0 mi North 8.1 mph - N/A   Mostly Cloudy
1:55 PM 9.3 °F -1.7 °F -7.6 °F 46% 30.35 in 10.0 mi North 6.9 mph - N/A   Scattered Clouds
2:15 PM 9.5 °F 3.0 °F -7.2 °F 47% 30.35 in 10.0 mi NNE 3.5 mph - N/A   Clear
2:35 PM 9.1 °F -3.0 °F -7.6 °F 47% 30.35 in 10.0 mi North 8.1 mph - N/A   Scattered Clouds
2:55 PM 9.1 °F -0.7 °F -6.9 °F 48% 30.35 in 10.0 mi NNE 5.8 mph - N/A   Mostly Cloudy
3:15 PM 8.6 °F -2.6 °F -6.9 °F 50% 30.35 in 10.0 mi North 6.9 mph - N/A   Mostly Cloudy
3:35 PM 8.2 °F -0.3 °F -6.9 °F 50% 30.35 in 10.0 mi North 4.6 mph - N/A   Scattered Clouds
3:55 PM 7.7 °F -2.4 °F -7.1 °F 51% 30.35 in 10.0 mi North 5.8 mph - N/A   Mostly Cloudy
4:15 PM 7.2 °F -1.5 °F -7.6 °F 51% 30.36 in 10.0 mi North 4.6 mph - N/A   Mostly Cloudy
4:35 PM 6.6 °F - -7.4 °F 53% 30.36 in 10.0 mi Calm Calm - N/A   Overcast
4:55 PM 6.6 °F - -7.2 °F 53% 30.36 in 10.0 mi Calm Calm - N/A   Overcast
5:15 PM 6.6 °F -2.2 °F -6.9 °F 54% 30.35 in 10.0 mi NNW 4.6 mph - N/A   Overcast
5:35 PM 6.8 °F - -6.7 °F 54% 30.36 in 10.0 mi Calm Calm - N/A   Overcast
5:55 PM 7.3 °F - -6.2 °F 54% 30.36 in 10.0 mi Calm Calm - N/A   Overcast
6:15 PM 7.7 °F - -5.4 °F 55% 30.36 in 10.0 mi Calm Calm - N/A   Overcast
6:35 PM 8.2 °F - -5.3 °F 54% 30.36 in 10.0 mi Calm Calm - N/A   Overcast
6:55 PM 8.4 °F - -4.9 °F 55% 30.37 in 10.0 mi Calm Calm - N/A   Overcast
7:15 PM 9.0 °F 2.4 °F -4.9 °F 53% 30.37 in 10.0 mi North 3.5 mph - N/A   Overcast
7:35 PM 9.1 °F 2.6 °F -4.9 °F 53% 30.36 in 10.0 mi NNE 3.5 mph - N/A   Overcast
7:55 PM 9.5 °F 3.0 °F -4.7 °F 53% 30.37 in 10.0 mi NNE 3.5 mph - N/A   Overcast
8:15 PM 9.5 °F -1.5 °F -4.9 °F 52% 30.36 in 10.0 mi NNE 6.9 mph - N/A   Overcast
8:35 PM 9.9 °F 1.6 °F -5.1 °F 51% 30.36 in 10.0 mi North 4.6 mph - N/A   Overcast
8:55 PM 9.5 °F -1.5 °F -4.9 °F 52% 30.35 in 10.0 mi North 6.9 mph - N/A   Overcast
9:15 PM 9.5 °F -1.5 °F -4.9 °F 52% 30.35 in 10.0 mi North 6.9 mph - N/A   Overcast
9:35 PM 9.5 °F -0.3 °F -4.7 °F 53% 30.35 in 10.0 mi North 5.8 mph - N/A   Overcast
9:55 PM 9.5 °F -0.3 °F -4.9 °F 52% 30.35 in 10.0 mi North 5.8 mph - N/A   Overcast
10:15 PM 9.3 °F -0.5 °F -4.7 °F 53% 30.34 in 10.0 mi NNE 5.8 mph - N/A   Overcast
10:35 PM 9.3 °F -1.7 °F -4.7 °F 53% 30.34 in 10.0 mi NNE 6.9 mph - N/A   Overcast
10:55 PM 9.3 °F -1.7 °F -4.5 °F 54% 30.34 in 10.0 mi North 6.9 mph - N/A   Overcast
11:15 PM 9.1 °F -1.9 °F -4.4 °F 54% 30.34 in 10.0 mi NNE 6.9 mph - N/A   Overcast
11:35 PM 9.1 °F -3.0 °F -4.4 °F 54% 30.34 in 10.0 mi NNE 8.1 mph - N/A   Overcast
11:55 PM 9.0 °F -4.2 °F -4.2 °F 55% 30.33 in 10.0 mi North 9.2 mph - N/A   Overcast